World > North America > United States > Ohio > Copley   Township of Copley, Ohio

Copley, OH Hourly Weather Updates

Feedback E-mail the Weather

Quick Clicks

Copley, OH Weather Maps

°F °C°F °C
Copley Weather Map
UTC Time: 6/19/2024, 23:18
Your Time:

Copley, OH Regional Weather

Expires:202406200000;;318541
ASUS41 KCLE 192312
RWRCLE
OHIO REGIONAL WEATHER ROUNDUP
NATIONAL WEATHER SERVICE WILMINGTON, OH
700 PM EDT WED JUN 19 2024

NOTE: "FAIR" INDICATES FEW OR NO CLOUDS BELOW 12,000 FEET WITH NO
SIGNIFICANT WEATHER AND/OR OBSTRUCTIONS TO VISIBILITY.


OHZ009>014-019>023-028>033-038-089-200000-
   NORTHEAST OHIO
  
CITY           SKY/WX    TMP DP  RH WIND       PRES   REMARKS
CLE-HOPKINS    FAIR      90  72  55 S10       30.22F HX  97           
CLE-LAKEFRONT  FAIR      88  75  65 CALM      30.21F HX  97           
CUY CO. ARPT   MOSUNNY   90  72  55 S10       30.24F HX  96           
LORAIN-ELYRIA  FAIR      91  71  51 S10       30.23F HX  97           
ASHTABULA      FAIR      87  73  62 S9        30.26F HX  94           
AKRON-CANTON   PTSUNNY   86  71  60 S9        30.28F HX  91           
WOOSTER        FAIR      87  73  62 S12       30.28F HX  94           
MANSFIELD      FAIR      87  71  58 SE13      30.27F HX  93           
YOUNGSTOWN     PTSUNNY   84  72  67 S5        30.28F                  
$$
 

SKY/WX - Weather  TMP - Temperature  DP - Dew Point  RH - Humidity
WIND - Wind Direction/Speed PRES - Barometric Pressure VSB - Visibility
WCI - Wind Chill Index E13G22 Wind - East Wind 13 mph/Gusts of 22 mph

Trending Headlines

Trending Entertainment Headlines

Copley Radar Loop

Use the map search tool if you want to place a location marker on the radar map...

Copley Quick Facts

National Two Day Weather Forecast


E-mail the Copley Weather Forecast

Voice your opinion or tell us about page issues...